Weather History for LGKL - October, 2013

Change the Weather History Date:

Sunday, October 13, 2013

  Actual Average Record
Temperature  
Mean Temperature 70 °F -  
Max Temperature 80 °F 73 °F 86 °F (2010)
Min Temperature 60 °F 53 °F 51 °F (2003)
Cooling Degree Days 5    
Growing Degree Days 20 (Base 50)    
Moisture  
Dew Point 62 °F    
Average Humidity 73    
Maximum Humidity 94    
Minimum Humidity 48    
Precipitation  
Precipitation 0.00 in 0.15 in - ()
Sea Level Pressure  
Sea Level Pressure 30.12 in    
Wind  
Wind Speed 1 mph ()    
Max Wind Speed 8 mph    
Max Gust Speed -    
Visibility 6.2 miles    
Events      
Averages and records for this station are not official NWS values.
T = Trace of Precipitation, MM = Missing Value Source: Averaged Metar Reports

Daily Weather History Graph

Daily Weather History Graph

Search for Another Location

Airport or City:

Trip Planner

Search our weather history database for the weather conditions in past years. The results will help you decide how hot, cold, wet, or windy it might be!

Date:

Astronomy

Oct. 13, 2013 Rise Set
Actual Time 7:37 AM EEST 6:57 PM EEST
Civil Twilight 7:11 AM EEST 7:24 PM EEST
Nautical Twilight 6:41 AM EEST 7:54 PM EEST
Astronomical Twilight 6:11 AM EEST 8:24 PM EEST
Moon 3:29 PM EEST (10/13) 1:34 AM EEST (10/13)
Length of Visible Light 12h 12m
Length of Day
11h 20m
Waxing Gibbous, 66% of the Moon is Illuminated
Oct 13
Waxing Gibbous
Oct 19
Full
Oct 27
Last Quarter
Nov 3
New
Nov 10
First Quarter

Hourly Weather History & Observations

Time (EEST) Temp. Heat Index Dew Point Humidity Pressure Visibility Wind Dir Wind Speed Gust Speed Precip Events Conditions
12:50 AM 66.2 °F - 62.6 °F 88% 30.15 in - Calm Calm - N/A   Clear
2:50 AM 64.4 °F - 59.0 °F 83% 30.12 in - Calm Calm - N/A   Clear
5:50 AM 60.8 °F - 57.2 °F 88% 30.12 in - Calm Calm - N/A   Clear
6:20 AM 60.8 °F - 55.4 °F 82% 30.12 in - Calm Calm - N/A   Clear
6:50 AM 62.6 °F - 57.2 °F 82% 30.12 in - Calm Calm - N/A   Clear
7:20 AM 62.6 °F - 57.2 °F 82% 30.12 in - Calm Calm - N/A   Clear
7:50 AM 62.6 °F - 57.2 °F 82% 30.12 in 6.2 mi Calm Calm - N/A   Partly Cloudy
8:20 AM 62.6 °F - 57.2 °F 82% 30.12 in - Calm Calm - N/A   Clear
8:50 AM 66.2 °F - 57.2 °F 73% 30.12 in - Calm Calm - N/A   Clear
9:20 AM 68.0 °F - 60.8 °F 78% 30.15 in - Calm Calm - N/A   Clear
9:50 AM 71.6 °F - 60.8 °F 69% 30.15 in - Calm Calm - N/A   Clear
10:20 AM 77.0 °F - 57.2 °F 50% 30.15 in - Calm Calm - N/A   Clear
10:50 AM 77.0 °F - 62.6 °F 61% 30.15 in - Calm Calm - N/A   Clear
11:50 AM 80.6 °F 81.8 °F 62.6 °F 54% 30.12 in - Calm Calm - N/A   Clear
12:20 PM 80.6 °F 81.5 °F 60.8 °F 51% 30.12 in - SSE 4.6 mph - N/A   Clear
12:50 PM 80.6 °F 81.5 °F 60.8 °F 51% 30.12 in - South 5.8 mph - N/A   Clear
1:20 PM 80.6 °F 81.1 °F 59.0 °F 48% 30.12 in - South 6.9 mph - N/A   Clear
1:50 PM 80.6 °F 82.3 °F 64.4 °F 58% 30.12 in - SSW 6.9 mph - N/A   Clear
2:20 PM 80.6 °F 81.8 °F 62.6 °F 54% 30.12 in - South 6.9 mph - N/A   Clear
2:50 PM 78.8 °F - 64.4 °F 61% 30.12 in - South 8.1 mph - N/A   Clear
3:20 PM 80.6 °F 81.5 °F 60.8 °F 51% 30.09 in - SSW 6.9 mph - N/A   Clear
3:50 PM 78.8 °F - 62.6 °F 57% 30.09 in 6.2 mi South 6.9 mph - N/A   Partly Cloudy
5:50 PM 77.0 °F - 66.2 °F 69% 30.09 in - Calm Calm - N/A   Clear
6:20 PM 75.2 °F - 66.2 °F 73% 30.09 in - Calm Calm - N/A   Clear
6:50 PM 73.4 °F - 68.0 °F 83% 30.12 in - Calm Calm - N/A   Clear
7:20 PM 71.6 °F - 66.2 °F 83% 30.12 in - Calm Calm - N/A   Clear
7:50 PM 69.8 °F - 66.2 °F 88% 30.12 in - Calm Calm - N/A   Clear
8:20 PM 68.0 °F - 64.4 °F 88% 30.12 in - Calm Calm - N/A   Clear
8:50 PM 66.2 °F - 64.4 °F 94% 30.12 in - Calm Calm - N/A   Clear
9:50 PM 66.2 °F - 64.4 °F 94% 30.12 in - Calm Calm - N/A   Clear
10:50 PM 64.4 °F - 62.6 °F 94% 30.15 in - Calm Calm - N/A   Clear
11:50 PM 62.6 °F - 60.8 °F 94% 30.12 in - Calm Calm - N/A   Clear